[[{"header":{"parameterUnit":"m.s-1","parameterCategory":1,"la1":30.2991,"la2":30.254,"lo1":-89.0895,"lo2":-89.0444,"dy":0.0017,"dx":0.0017,"nx":28,"ny":28,"refTime":"2025-05-20T21:00:00:Z","depth":0,"parameterNumber":2,"parameterNumberName":"U-component_of_WINDS"},"data":[0,0,0,0,0,0,0,0,0,0,0,0,0,0,0,0,0,0,0,0,0,0,0,0,0,0,0,0,0,0,0,0,0,0,0,0,0,0,0,0,0,0,0,0,0,0,0,0,0,0,0,0,0,0,0,0,0,0,0.7848,0.7848,0,0.7844,0.7844,0.7844,0.7801,0.78,0.7799,0.7798,0.7796,0.7797,0.7798,0,0,0,0,0,0,0,0,0,0,0,0,0,0.7822,0.7823,0.7848,0.7848,0.7848,0.7844,0.7844,0.7844,0.7801,0.78,0.7799,0.7797,0.7795,0.7797,0.7798,0,0,0,0,0,0,0,0,0,0,0,0,0,0.7827,0.7823,0.7848,0.7826,0.7824,0.7844,0.7844,0.7844,0.7802,0.78,0.7798,0.7797,0.7795,0.7796,0.7798,0.7839,0,0,0.7802,0.7803,0,0,0,0,0,0,0,0,0.7827,0.7828,0.783,0.7828,0.7826,0.7821,0.7834,0.7842,0.7802,0.781,0.7798,0.7796,0.7806,0.7806,0.7809,0.7839,0.7838,0.7802,0.7803,0.7804,0.7804,0,0,0,0,0,0,0,0.7827,0.7828,0.7847,0.783,0.7827,0.7818,0.7816,0.7835,0.7817,0.7809,0.7806,0.7806,0.7804,0.7808,0.7809,0.7838,0.7802,0.7803,0.7804,0.7805,0.7902,0.7903,0,0,0,0,0,0,0.7829,0.7828,0.7847,0.7846,0.7822,0.7819,0.7818,0.7824,0.7817,0.7814,0.7808,0.7804,0.7806,0.7807,0.7808,0.7856,0.7804,0.7805,0.7806,0.79,0.7902,0.7904,0,0,0,0,0,0,0.7829,0.7831,0.7847,0.7837,0.7838,0.7821,0.7829,0.7825,0.7828,0.7815,0.7812,0.7814,0.7805,0.7806,0.7831,0.7855,0.7806,0.7807,0.7898,0.7901,0.7903,0.7952,0,0,0,0,0,0,0.7828,0.7831,0.7846,0.7837,0.7839,0.787,0.783,0.7826,0.7831,0.7826,0.7821,0.7818,0.7804,0.7829,0.7833,0.7856,0.7808,0.7896,0.7899,0.7902,0.7948,0.7956,0.7962,0,0,0,0,0,0.7828,0.7861,0.7847,0.785,0.7857,0.7871,0.7872,0.7854,0.7833,0.7848,0.784,0.7818,0.7852,0.7832,0.7836,0.786,0.7894,0.7898,0.7902,0.7945,0.7954,0.7962,0,0,0,0,0,0,0.7874,0.7859,0.7844,0.7875,0.7875,0.7864,0.7882,0.7864,0.787,0.7866,0.7844,0.7843,0.7872,0.7868,0.7847,0.7899,0.7869,0.7874,0.7901,0.791,0.7917,0.7917,0.7809,0,0,0,0,0,0.7887,0.79,0.7886,0.7915,0.7915,0.7899,0.7905,0.7891,0.789,0.7889,0.7883,0.7883,0.7894,0.7901,0.791,0.7947,0.7946,0.7965,0.7973,0.7978,0.7983,0.8003,0.8012,0.7917,0.7917,0.7917,0,0,0.7916,0.791,0.7919,0.7924,0.7922,0.7936,0.7899,0.7915,0.7926,0.7892,0.7915,0.791,0.7909,0.7941,0.7954,0.7939,0.8009,0.7983,0.7988,0.799,0.8008,0.8017,0.8025,0.7919,0.7919,0.7919,0,0,0.7976,0.7971,0.7995,0.7994,0.7991,0.798,0.7985,0.7977,0.7973,0.7995,0.797,0.7983,0.8001,0.8002,0.8004,0.8064,0.8045,0.8067,0.8105,0.8125,0.8132,0.8139,0.8161,0.8169,0.8072,0.8072,0.8072,0,0.8012,0.8031,0.801,0.8028,0.8031,0.8,0.8024,0.8024,0.8025,0.8028,0.8011,0.8034,0.8031,0.8062,0.8076,0.8079,0.8086,0.8068,0.8133,0.8139,0.8145,0.8166,0.8174,0.8075,0.8075,0.8074,0.8074,0,0.8076,0.809,0.811,0.811,0.8116,0.8137,0.8119,0.8128,0.8113,0.8104,0.8128,0.8123,0.8131,0.8137,0.8123,0.8166,0.8157,0.8137,0.8106,0.8157,0.8177,0.8184,0.8079,0.8078,0.8077,0.8076,0,0,0.8166,0.8154,0.8161,0.8162,0.8156,0.8167,0.8187,0.8193,0.8201,0.8203,0.8219,0.8235,0.8216,0.822,0.8205,0.8222,0.8271,0.82,0.8199,0.8214,0.8319,0.8335,0.8345,0.8258,0.8259,0.826,0.8319,0,0.8223,0.8256,0.8238,0.8273,0.8286,0.8257,0.8274,0.8273,0.8265,0.8276,0.8267,0.8279,0.8253,0.8254,0.827,0.8262,0.8292,0.8257,0.8274,0.8275,0.8276,0.8355,0.8372,0.8428,0.8327,0.8328,0.8329,0,0.8296,0.8299,0.8337,0.8329,0.8333,0.8349,0.8354,0.8364,0.8363,0.8356,0.8359,0.8341,0.836,0.8329,0.8357,0.8333,0.8339,0.8336,0.8338,0.834,0.8306,0.836,0.8445,0.8454,0.834,0.8339,0.8339,0,0.8358,0.8373,0.8397,0.8398,0.8389,0.8401,0.8398,0.8394,0.84,0.8404,0.8408,0.8415,0.8419,0.8425,0.8409,0.8388,0.8439,0.8406,0.8435,0.8435,0.8448,0.8447,0.8537,0.845,0.845,0.8449,0.8449,0,0.8425,0.8449,0.8425,0.844,0.8466,0.8444,0.8471,0.8465,0.8462,0.8476,0.8451,0.8465,0.8443,0.8454,0.8442,0.8467,0.8469,0.8464,0.8461,0.8467,0.8468,0.8472,0.8468,0.8452,0.8451,0.8451,0.845,0,0.85,0.8484,0.8509,0.8498,0.8496,0.8516,0.8508,0.8521,0.8511,0.8529,0.8532,0.8517,0.8529,0.8514,0.8525,0.8517,0.8551,0.8541,0.8552,0.8549,0.8579,0.8576,0.8674,0.8686,0.8591,0.8592,0.8592,0,0.8544,0.8562,0.8554,0.8561,0.8559,0.8571,0.8576,0.8556,0.8562,0.8562,0.8576,0.8586,0.8593,0.8614,0.8605,0.8613,0.8604,0.8638,0.8605,0.8611,0.8606,0.8605,0.8607,0.8645,0.8646,0.8647,0.8648,0,0.8625,0.8617,0.8625,0.8631,0.8637,0.8641,0.8643,0.865,0.8629,0.8637,0.8649,0.8655,0.8666,0.8677,0.8683,0.868,0.8661,0.8658,0.8665,0.8672,0.8677,0.8676,0.8571,0.8656,0.8655,0.8654,0.8654,0.8654,0.8687,0.8701,0.8698,0.8708,0.8707,0.8709,0.8722,0.8713,0.8722,0.873,0.8717,0.8732,0.873,0.8736,0.8736,0.8748,0.8734,0.8744,0.8747,0.875,0.8755,0.8675,0.8749,0.8749,0.8749,0.8748,0.8748,0,0.8767,0.8763,0.8773,0.8776,0.8784,0.8764,0.8765,0.8773,0.8787,0.8786,0.8794,0.8808,0.8818,0.8809,0.8818,0.8829,0.8821,0.8832,0.8832,0.8832,0.8767,0.876,0.8839,0.8839,0.8839,0.8839,0.8839,0.8839,0.881,0.8834,0.8825,0.8848,0.8844,0.8859,0.8861,0.8863,0.8863,0.888,0.8888,0.8881,0.8878,0.8886,0.8894,0.8892,0.8896,0.8911,0.8906,0.8845,0.8836,0.8828,0.8822,0.8912,0.8912,0.897,0.897,0.8971]},{"header":{"parameterUnit":"m.s-1","parameterCategory":1,"la1":30.2991,"la2":30.254,"lo1":-89.0895,"lo2":-89.0444,"dy":0.0017,"dx":0.0017,"nx":28,"ny":28,"refTime":"2025-05-20T21:00:00:Z","depth":0,"parameterNumber":3,"parameterNumberName":"V-component_of_WINDS"},"data":[0,0,0,0,0,0,0,0,0,0,0,0,0,0,0,0,0,0,0,0,0,0,0,0,0,0,0,0,0,0,0,0,0,0,0,0,0,0,0,0,0,0,0,0,0,0,0,0,0,0,0,0,0,0,0,0,0,0,6.5769,6.577,0,6.5825,6.5825,6.5826,6.5785,6.5784,6.5782,6.578,6.583,6.5833,6.5836,0,0,0,0,0,0,0,0,0,0,0,0,0,6.5621,6.5624,6.5769,6.577,6.5771,6.5825,6.5825,6.5826,6.5786,6.5783,6.5781,6.5779,6.5829,6.5833,6.5836,0,0,0,0,0,0,0,0,0,0,0,0,0,6.5682,6.5625,6.5769,6.5757,6.5757,6.5824,6.5825,6.5826,6.5786,6.5783,6.5781,6.5778,6.5828,6.5832,6.5837,6.5917,0,0,6.585,6.5852,0,0,0,0,0,0,0,0,6.5678,6.5687,6.5758,6.5758,6.5758,6.5796,6.5791,6.5857,6.5787,6.5775,6.578,6.5777,6.582,6.5825,6.5841,6.592,6.5922,6.5851,6.5853,6.5855,6.5857,0,0,0,0,0,0,0,6.5674,6.5684,6.5791,6.5759,6.5759,6.5746,6.5752,6.5803,6.5811,6.5775,6.5773,6.578,6.5819,6.5837,6.5842,6.5922,6.5851,6.5854,6.5857,6.5859,6.6069,6.6071,0,0,0,0,0,0,6.5672,6.5681,6.5789,6.5793,6.5711,6.5751,6.5758,6.5786,6.5811,6.5812,6.5782,6.5778,6.5831,6.5837,6.5844,6.5939,6.5855,6.5859,6.5862,6.6066,6.6069,6.6073,0,0,0,0,0,0,6.5669,6.5682,6.5787,6.5736,6.5749,6.5757,6.5789,6.5788,6.5806,6.5816,6.5817,6.5799,6.5829,6.5837,6.59,6.594,6.5861,6.5865,6.6062,6.6067,6.6071,6.6132,0,0,0,0,0,0,6.5665,6.5681,6.5714,6.5737,6.5752,6.5844,6.5791,6.5791,6.5815,6.5809,6.5832,6.5833,6.5827,6.5893,6.5904,6.5945,6.5869,6.6059,6.6064,6.607,6.6126,6.6138,6.6147,0,0,0,0,0,6.566,6.5727,6.5716,6.5729,6.5793,6.5847,6.5855,6.5849,6.5818,6.5849,6.5856,6.5832,6.5934,6.59,6.5912,6.5955,6.6056,6.6063,6.6069,6.6121,6.6135,6.6147,0,0,0,0,0,0,6.5705,6.573,6.5717,6.5795,6.582,6.584,6.5879,6.5864,6.5895,6.5889,6.5878,6.5883,6.5949,6.5958,6.5919,6.6034,6.599,6.5999,6.6026,6.6039,6.605,6.6046,6.5873,0,0,0,0,0,6.5725,6.5769,6.5787,6.5854,6.5867,6.5871,6.5894,6.5888,6.5912,6.5921,6.5932,6.5954,6.5991,6.6015,6.605,6.6127,6.6131,6.6163,6.6173,6.6182,6.619,6.6231,6.6245,6.6094,6.6094,6.6094,0,0,6.5765,6.5784,6.5812,6.5863,6.5882,6.5925,6.588,6.5928,6.596,6.5928,6.5988,6.5997,6.602,6.609,6.6122,6.61,6.6232,6.619,6.6197,6.62,6.6239,6.6253,6.6266,6.6098,6.6098,6.6097,0,0,6.586,6.5879,6.5937,6.5957,6.5986,6.5988,6.6002,6.6025,6.603,6.6091,6.6068,6.6104,6.6168,6.6186,6.6203,6.6306,6.6285,6.6317,6.6372,6.6412,6.6424,6.6435,6.647,6.6483,6.6325,6.6325,6.6325,0,6.5905,6.5973,6.5968,6.6019,6.6041,6.6016,6.6073,6.6091,6.6129,6.6144,6.612,6.62,6.6214,6.6288,6.6313,6.6328,6.6342,6.6314,6.6423,6.6434,6.6443,6.6477,6.6491,6.6329,6.6328,6.6328,6.6327,0,6.6027,6.6074,6.6116,6.6156,6.6184,6.6237,6.6238,6.6266,6.6257,6.6261,6.6322,6.6339,6.6376,6.6393,6.6383,6.6465,6.6451,6.6425,6.6381,6.6462,6.6493,6.6506,6.6334,6.6333,6.6331,6.6331,0,0,6.6152,6.6189,6.6205,6.6223,6.6253,6.6288,6.6339,6.6378,6.6402,6.6428,6.647,6.6525,6.6502,6.6522,6.6514,6.6549,6.6628,6.6519,6.6519,6.6538,6.6718,6.6737,6.6752,6.6615,6.6617,6.6619,6.6716,0,6.6248,6.6341,6.6338,6.6423,6.6466,6.6443,6.6487,6.6509,6.6515,6.655,6.6554,6.6594,6.656,6.6572,6.6606,6.6612,6.6664,6.6604,6.6652,6.6654,6.6646,6.6769,6.6789,6.688,6.6728,6.673,6.6732,0,6.6374,6.6407,6.6498,6.6522,6.6539,6.658,6.6615,6.665,6.6673,6.6674,6.6697,6.6684,6.6734,6.6689,6.6756,6.6716,6.6735,6.6741,6.6744,6.6747,6.6697,6.6775,6.6908,6.6922,6.6752,6.675,6.6749,0,6.6455,6.6523,6.6586,6.6602,6.6631,6.666,6.6673,6.6695,6.6718,6.6748,6.6763,6.6797,6.6816,6.6842,6.6837,6.6805,6.6906,6.6861,6.6907,6.6907,6.6928,6.6927,6.7066,6.6942,6.6942,6.6941,6.6941,0,6.6563,6.6619,6.6623,6.6662,6.6723,6.6718,6.6778,6.6788,6.6807,6.6845,6.6826,6.6862,6.6854,6.6889,6.6886,6.6942,6.695,6.6951,6.695,6.6953,6.6953,6.6965,6.6958,6.6945,6.6944,6.6943,6.6943,0,6.6665,6.667,6.6737,6.676,6.6767,6.6811,6.683,6.6865,6.6869,6.6918,6.6929,6.6934,6.6975,6.6973,6.7018,6.7016,6.7085,6.7076,6.7077,6.7075,6.7121,6.7117,6.7272,6.7292,6.7156,6.7157,6.7158,0,6.6734,6.6777,6.6805,6.6831,6.6847,6.6888,6.6912,6.6908,6.6934,6.6964,6.6995,6.7035,6.7066,6.7131,6.7137,6.7171,6.7163,6.7215,6.7167,6.7169,6.7163,6.716,6.7164,6.7224,6.7225,6.7227,6.7228,0,6.6855,6.6855,6.6893,6.6931,6.6962,6.6991,6.7017,6.7039,6.7037,6.7067,6.7109,6.7133,6.718,6.7219,6.7252,6.7262,6.7244,6.7243,6.7255,6.7259,6.7258,6.7258,6.7102,6.7239,6.7238,6.7237,6.7236,6.7236,6.6941,6.6979,6.7005,6.7047,6.7067,6.7093,6.7127,6.7136,6.7172,6.7212,6.7206,6.7253,6.7275,6.7317,6.7331,6.7367,6.7348,6.7366,6.737,6.7375,6.738,6.7253,6.7372,6.7372,6.7372,6.7371,6.7371,0,6.7061,6.7077,6.7116,6.7155,6.7188,6.7171,6.7199,6.7227,6.727,6.7292,6.7324,6.7372,6.7409,6.7419,6.7454,6.7481,6.7473,6.749,6.7487,6.749,6.7395,6.738,6.7495,6.7495,6.7495,6.7495,6.7495,6.7495,6.7127,6.7189,6.7193,6.7263,6.7278,6.7326,6.7344,6.7366,6.7385,6.744,6.7472,6.7479,6.7496,6.7532,6.7565,6.7567,6.758,6.76,6.7599,6.7509,6.7497,6.7485,6.7471,6.7604,6.7604,6.7691,6.7692,6.7692]}]]